| time (UTC) | temp F | wind direction | speed MPH | gust MPH | rain 1hr in | rain 24hr in | rain mn in | humidity % | barometer mb |
| 20260505193203 | 54 | 62 | 2.0 | 16.0 | 0.00 | 0.00 | 0.00 | 72 | 1011.4 |
| 20260505190204 | 55 | 350 | 4.0 | 12.0 | 0.00 | 0.00 | 0.00 | 71 | 1010.7 |
| 20260505183704 | 55 | 22 | 3.0 | 9.0 | 0.00 | 0.00 | 0.00 | 73 | 1010.4 |
| 20260505180203 | 55 | 334 | 4.0 | 17.0 | 0.00 | 0.00 | 0.00 | 77 | 1010.1 |
| 20260505173703 | 55 | 27 | 3.0 | 8.0 | 0.00 | 0.00 | 0.00 | 77 | 1009.9 |
| 20260505173203 | 55 | 33 | 5.0 | 17.0 | 0.00 | 0.00 | 0.00 | 77 | 1009.9 |
| 20260505170703 | 55 | 27 | 4.0 | 16.0 | 0.00 | 0.00 | 0.00 | 76 | 1009.6 |
| 20260505170203 | 55 | 355 | 5.0 | 14.0 | 0.00 | 0.00 | 0.00 | 77 | 1009.3 |
| 20260505163704 | 55 | 53 | 3.0 | 10.0 | 0.00 | 0.00 | 0.00 | 78 | 1008.9 |
| 20260505160703 | 56 | 17 | 3.0 | 12.0 | 0.00 | 0.00 | 0.00 | 79 | 1007.9 |
| 20260505160204 | 56 | 346 | 5.0 | 16.0 | 0.00 | 0.00 | 0.00 | 79 | 1007.9 |
| 20260505153203 | 56 | 22 | 5.0 | 14.0 | 0.00 | 0.00 | 0.00 | 80 | 1007.3 |
| 20260505150704 | 58 | 19 | 6.0 | 13.0 | 0.00 | 0.00 | 0.00 | 80 | 1007.1 |
| 20260505150204 | 58 | 351 | 6.0 | 23.0 | 0.00 | 0.00 | 0.00 | 79 | 1006.9 |
| 20260505140204 | 65 | 15 | 3.0 | 10.0 | 0.00 | 0.00 | 0.00 | 79 | 1005.4 |
| 20260505130204 | 66 | 118 | 1.0 | 9.0 | 0.00 | 0.00 | 0.00 | 81 | 1004.4 |
| 20260505123704 | 66 | 109 | 2.0 | 3.0 | 0.00 | 0.00 | 0.00 | 81 | 1004.3 |
| 20260505123204 | 66 | 95 | 4.0 | 13.0 | 0.00 | 0.00 | 0.00 | 81 | 1004.2 |
| 20260505120703 | 65 | 133 | 4.0 | 12.0 | 0.00 | 0.00 | 0.00 | 82 | 1003.7 |
| 20260505120204 | 65 | 108 | 4.0 | 12.0 | 0.00 | 0.00 | 0.00 | 82 | 1003.7 |
| 20260505113703 | 65 | 10 | 2.0 | 9.0 | 0.00 | 0.00 | 0.00 | 82 | 1003.5 |
| 20260505110704 | 65 | 48 | 3.0 | 5.0 | 0.00 | 0.00 | 0.00 | 82 | 1003.1 |
| 20260505110203 | 65 | 74 | 1.0 | 9.0 | 0.00 | 0.00 | 0.00 | 82 | 1003.3 |
| 20260505100704 | 66 | 116 | 1.0 | 3.0 | 0.00 | 0.00 | 0.00 | 82 | 1002.4 |
| 20260505093704 | 67 | 114 | 3.0 | 7.0 | 0.00 | 0.00 | 0.00 | 81 | 1001.7 |
| 20260505093203 | 67 | 122 | 5.0 | 12.0 | 0.00 | 0.00 | 0.00 | 81 | 1001.6 |
| 20260505090703 | 68 | 106 | 6.0 | 12.0 | 0.00 | 0.00 | 0.00 | 80 | 1001.7 |
| 20260505090204 | 68 | 105 | 3.0 | 10.0 | 0.00 | 0.00 | 0.00 | 80 | 1001.8 |
| 20260505083704 | 69 | 135 | 5.0 | 9.0 | 0.00 | 0.00 | 0.00 | 79 | 1001.9 |
| 20260505083203 | 69 | 92 | 4.0 | 10.0 | 0.00 | 0.00 | 0.00 | 79 | 1002.1 |
| 20260505080703 | 69 | 122 | 3.0 | 7.0 | 0.00 | 0.00 | 0.00 | 78 | 1002.1 |
| 20260505080204 | 70 | 96 | 2.0 | 8.0 | 0.00 | 0.00 | 0.00 | 78 | 1002.3 |
| 20260505073703 | 70 | 134 | 3.0 | 6.0 | 0.00 | 0.00 | 0.00 | 77 | 1002.3 |
| 20260505070703 | 71 | 160 | 3.0 | 7.0 | 0.00 | 0.00 | 0.00 | 75 | 1002.6 |
| 20260505070203 | 71 | 141 | 5.0 | 9.0 | 0.00 | 0.00 | 0.00 | 76 | 1002.7 |
| 20260505063704 | 72 | 89 | 1.0 | 3.0 | 0.00 | 0.00 | 0.00 | 74 | 1002.9 |
| 20260505063204 | 72 | 71 | 1.0 | 12.0 | 0.00 | 0.00 | 0.00 | 74 | 1002.8 |
| 20260505060704 | 72 | 179 | 3.0 | 9.0 | 0.00 | 0.00 | 0.00 | 73 | 1002.5 |
| 20260505060204 | 72 | 175 | 4.0 | 14.0 | 0.00 | 0.00 | 0.00 | 73 | 1002.5 |
| 20260505053703 | 73 | 170 | 6.0 | 18.0 | 0.00 | 0.00 | 0.00 | 73 | 1002.5 |
| 20260505050704 | 73 | 163 | 6.0 | 12.0 | 0.00 | 0.00 | 0.00 | 72 | 1002.7 |
| 20260505050204 | 73 | 168 | 4.0 | 13.0 | 0.00 | 0.00 | 0.00 | 72 | 1002.8 |
| 20260505040704 | 74 | 177 | 7.0 | 13.0 | 0.00 | 0.00 | 0.00 | 71 | 1003.2 |
| 20260505040203 | 74 | 177 | 5.0 | 14.0 | 0.00 | 0.00 | 0.00 | 71 | 1003.3 |
| 20260505033703 | 74 | 171 | 5.0 | 12.0 | 0.00 | 0.00 | 0.00 | 70 | 1003.3 |
| 20260505033203 | 74 | 151 | 6.0 | 14.0 | 0.00 | 0.00 | 0.00 | 70 | 1003.3 |
| 20260505030204 | 74 | 144 | 7.0 | 16.0 | 0.00 | 0.00 | 0.00 | 69 | 1003.7 |
| 20260505020704 | 75 | 142 | 5.0 | 8.0 | 0.00 | 0.00 | 0.00 | 69 | 1003.3 |
| 20260505020204 | 75 | 130 | 5.0 | 12.0 | 0.00 | 0.00 | 0.00 | 69 | 1003.3 |
| 20260505013203 | 76 | 126 | 6.0 | 12.0 | 0.00 | 0.00 | 0.00 | 67 | 1003.5 |
| 20260505010704 | 76 | 129 | 7.0 | 12.0 | 0.00 | 0.00 | 0.00 | 66 | 1003.5 |
| 20260505010203 | 77 | 132 | 5.0 | 12.0 | 0.00 | 0.00 | 0.00 | 65 | 1003.5 |
| 20260505003704 | 77 | 154 | 6.0 | 9.0 | 0.00 | 0.00 | 0.00 | 64 | 1003.5 |
| 20260505003204 | 78 | 136 | 5.0 | 15.0 | 0.00 | 0.00 | 0.00 | 64 | 1003.5 |
| 20260505000704 | 78 | 139 | 7.0 | 14.0 | 0.00 | 0.00 | 0.00 | 62 | 1003.5 |
| 20260505000204 | 78 | 150 | 6.0 | 15.0 | 0.00 | 0.00 | 0.00 | 62 | 1003.5 |
| 20260504233703 | 79 | 166 | 7.0 | 16.0 | 0.00 | 0.00 | 0.00 | 60 | 1004.1 |
| 20260504230703 | 80 | 155 | 6.0 | 16.0 | 0.00 | 0.00 | 0.00 | 58 | 1004.3 |
| 20260504230203 | 80 | 160 | 7.0 | 16.0 | 0.00 | 0.00 | 0.00 | 58 | 1004.4 |
| 20260504223704 | 81 | 168 | 4.0 | 15.0 | 0.00 | 0.00 | 0.00 | 58 | 1004.6 |
| 20260504223203 | 81 | 164 | 5.0 | 15.0 | 0.00 | 0.00 | 0.00 | 58 | 1004.5 |
| 20260504220703 | 80 | 182 | 7.0 | 17.0 | 0.00 | 0.00 | 0.00 | 56 | 1004.4 |
| 20260504213704 | 81 | 183 | 5.0 | 15.0 | 0.00 | 0.00 | 0.00 | 55 | 1004.6 |
| 20260504210703 | 81 | 189 | 7.0 | 12.0 | 0.00 | 0.00 | 0.00 | 54 | 1005.0 |
| 20260504210204 | 81 | 184 | 7.0 | 20.0 | 0.00 | 0.00 | 0.00 | 53 | 1005.1 |
| 20260504203703 | 82 | 175 | 8.0 | 17.0 | 0.00 | 0.00 | 0.00 | 52 | 1005.4 |
| 20260504203203 | 83 | 156 | 9.0 | 18.0 | 0.00 | 0.00 | 0.00 | 51 | 1005.4 |
| 20260504200703 | 82 | 172 | 3.0 | 16.0 | 0.00 | 0.00 | 0.00 | 54 | 1005.8 |